Theta_e
286 288 289 289 289 290 288 288 285 289 291 295 298 300 308 314 316 317 318 319 320 321 322 323 323 323 322 321 321 323 326 327 325 324 323 323 322 324 325 326 326 327 325 324
284 289 289 288 290 291 290 290 290 291 293 300 300 308 312 314 315 316 318 319 321 321 323 322 322 321 321 321 319 326 328 328 328 325 324 322 322 326 325 325 326 326 323 322
280 288 288 283 289 290 293 293 293 289 295 301 309 312 313 315 316 317 318 319 320 321 323 323 322 320 318 318 324 326 328 329 327 326 324 323 322 322 324 324 325 322 319 318
282 285 277 291 297 298 298 295 301 304 305 307 310 311 314 315 317 317 319 320 321 322 323 322 320 317 317 323 325 326 327 328 327 328 324 323 322 321 320 320 325 319 317 315
281 283 288 292 293 294 294 295 304 302 306 309 311 309 311 316 316 316 320 321 322 323 323 320 318 317 319 323 324 324 328 326 326 326 324 324 322 321 320 320 319 319 318 315
284 280 280 288 293 297 298 293 304 303 304 306 308 302 307 314 317 314 318 322 322 323 322 319 316 318 318 320 322 323 325 326 326 325 325 323 322 321 321 324 322 323 319 317
283 283 286 291 293 298 291 294 303 304 304 307 306 308 310 317 318 317 317 321 323 322 320 318 317 318 316 316 319 323 326 325 324 324 324 323 322 322 322 322 322 321 319 316
287 283 281 292 293 293 296 302 304 305 308 309 311 312 313 317 318 319 319 322 322 320 318 317 318 317 315 314 316 319 323 324 323 325 326 325 323 323 322 320 320 318 317 316
287 286 293 293 296 302 302 301 302 304 306 311 311 311 312 314 317 320 321 321 322 319 317 316 317 318 315 315 315 320 323 323 325 326 326 325 324 322 320 319 320 319 319 318
290 293 293 298 301 302 303 302 304 307 307 309 309 310 310 312 312 315 319 322 322 319 317 315 315 317 317 315 317 325 323 323 325 326 323 325 325 324 321 319 319 319 319 315
290 295 297 299 300 302 303 305 304 306 307 309 309 310 310 311 312 315 319 320 324 320 318 317 316 317 318 317 321 324 323 324 325 325 324 323 319 319 323 322 321 321 321 320
288 296 296 297 301 303 303 303 305 305 306 309 309 307 309 310 312 314 316 318 321 321 320 319 318 317 319 317 323 323 322 324 325 324 323 320 314 310 298 300 299 303 308 316
293 298 298 300 303 304 304 305 306 306 308 307 308 308 308 308 311 312 316 316 317 320 322 321 319 318 321 318 324 324 322 324 324 323 323 316 312 313 311 307 297 298 300 303
301 300 297 300 300 304 306 306 307 306 307 307 307 308 307 308 311 314 314 317 318 322 324 322 320 319 321 319 323 324 323 311 325 325 324 319 315 312 312 312 314 313 299 301
299 302 301 303 303 303 305 305 304 304 305 306 308 308 308 306 308 312 315 318 322 324 323 323 321 320 321 320 321 323 324 323 325 326 324 320 319 314 312 311 313 312 307 302
300 301 301 301 301 301 301 302 302 303 304 304 305 307 309 310 308 312 314 319 319 318 319 321 323 323 323 320 320 321 323 314 316 323 323 321 321 319 315 313 311 312 315 315
295 296 297 299 299 299 299 300 302 302 303 303 305 308 308 307 308 310 312 319 318 316 313 312 317 320 325 321 321 321 322 318 314 321 321 322 321 321 320 317 315 312 315 312
299 300 302 298 300 300 299 301 301 301 302 304 306 306 305 304 305 309 308 308 308 307 307 311 309 314 313 311 313 319 320 320 319 320 318 320 320 321 320 321 319 315 313 310
299 300 301 302 302 300 301 301 299 301 301 302 302 301 302 303 304 305 306 305 301 301 303 309 302 306 311 306 305 315 318 319 319 319 318 310 313 316 319 320 321 320 317 314
299 301 301 302 302 300 298 301 300 299 299 299 300 299 299 300 301 302 301 300 300 297 300 306 306 306 307 306 303 321 319 317 316 317 316 314 312 313 314 308 319 321 319 317
301 301 300 300 299 300 299 299 298 298 298 298 297 297 296 297 298 299 296 295 297 296 299 304 303 303 305 304 312 316 322 323 317 316 315 313 314 312 312 313 315 317 321 319
301 300 300 300 299 298 299 298 298 298 298 297 298 297 295 294 294 295 296 294 296 291 296 299 301 296 297 299 314 315 315 322 322 321 316 315 315 313 313 314 314 315 316 318
300 302 301 300 300 298 300 299 298 298 297 296 296 295 294 293 293 292 290 294 293 291 296 294 290 288 290 305 309 312 312 314 320 321 321 321 319 317 316 315 315 315 315 315
299 300 299 300 300 298 296 297 298 297 297 297 296 296 294 292 293 294 294 292 289 289 292 290 289 288 291 301 302 303 309 306 308 316 320 309 322 322 322 321 320 316 314 309
299 299 298 298 297 295 295 296 296 296 296 295 295 295 295 295 293 292 292 292 289 290 291 289 288 289 295 297 299 300 303 299 298 304 307 308 311 314 319 321 322 319 318 317
298 298 297 297 296 295 295 294 292 293 293 292 293 293 293 294 294 292 292 290 292 290 291 291 290 291 292 294 295 296 297 296 295 298 298 299 301 303 306 309 310 316 315 315
299 297 299 298 296 296 295 293 292 291 292 292 291 292 292 293 292 291 289 290 290 291 291 290 290 289 290 291 292 293 294 293 291 293 294 294 296 296 298 303 306 308 305 307
Wind_Speed
12 17 17 18 17 12 8 6 4 7 18 18 18 13 12 13 17 18 18 17 16 15 13 12 11 10 10 8 7 7 8 9 7 5 6 6 5 3 1 5 3 6 6 5
15 18 19 20 13 13 11 12 11 16 27 12 10 9 6 18 20 19 18 18 17 16 15 14 13 11 11 9 7 8 9 9 7 7 6 6 5 4 5 3 5 6 6 5
8 13 3 4 12 10 5 7 6 7 12 16 7 2 8 8 19 21 19 19 18 17 16 14 13 11 10 8 7 7 9 9 9 8 6 6 6 5 5 5 6 6 6 5
7 6 5 5 11 5 7 8 1 13 15 5 8 7 7 6 9 18 17 18 17 15 14 13 12 9 8 10 9 9 8 11 7 9 7 6 6 6 4 3 6 6 5 5
3 3 3 3 10 9 11 5 3 14 8 8 5 7 10 2 5 8 18 16 16 15 15 13 13 11 12 10 10 10 10 10 8 9 7 7 6 6 4 4 5 5 5 6
3 4 2 1 9 16 12 5 8 14 11 3 20 12 8 6 4 6 8 13 14 15 14 14 11 12 14 11 10 9 10 10 8 9 7 7 7 6 3 4 5 5 5 5
7 5 3 4 14 16 6 3 18 16 10 7 6 2 4 6 7 8 7 14 13 15 16 15 13 13 13 12 11 10 12 10 8 7 9 8 6 3 4 5 5 5 6 4
4 1 5 15 15 8 6 7 12 15 11 8 8 9 4 7 5 9 9 16 16 14 13 12 13 14 12 12 10 7 10 10 8 8 7 6 7 4 6 6 7 6 6 4
2 1 4 12 11 6 8 9 12 14 17 14 14 9 8 6 1 7 6 8 12 14 12 11 11 13 13 11 8 8 10 9 9 7 6 6 7 6 4 5 7 6 6 5
5 5 1 9 13 12 9 11 15 14 13 15 10 7 5 5 7 8 8 7 7 8 12 11 8 11 13 9 9 12 11 11 10 10 7 6 4 4 5 5 5 5 5 4
4 5 7 11 13 14 18 16 17 15 10 13 14 7 5 7 11 9 8 5 6 10 9 11 9 10 9 9 12 11 12 11 9 7 8 6 4 3 4 4 7 7 5 6
3 5 3 6 9 12 13 18 25 21 10 11 11 10 9 11 10 9 10 10 8 7 10 7 7 8 9 10 13 13 11 10 9 8 6 5 6 3 6 3 2 6 10 8
3 6 7 10 9 9 12 13 18 11 11 8 10 10 11 9 12 11 10 12 11 4 8 13 11 9 8 10 12 14 13 11 8 9 7 7 5 6 5 3 4 4 9 12
6 5 3 5 6 10 11 13 14 14 15 14 14 14 12 10 12 13 13 12 11 9 4 13 12 13 10 10 13 14 12 14 11 9 8 7 6 5 5 5 4 4 7 1
10 5 4 5 6 8 7 11 13 13 14 15 14 15 16 13 11 9 11 13 11 11 14 2 12 11 10 11 13 14 12 10 10 9 9 9 7 5 5 4 4 5 3 5
8 8 10 9 8 8 9 11 10 11 13 12 12 13 13 12 8 7 11 14 15 14 14 13 5 3 6 9 12 11 12 16 11 9 8 8 8 8 6 5 5 5 6 7
2 5 6 6 6 6 7 7 7 6 7 10 11 11 14 15 14 15 10 12 15 15 15 16 12 11 2 3 8 6 9 9 14 9 9 9 8 9 8 8 8 6 7 7
4 3 3 1 2 5 5 5 6 8 9 10 9 10 13 15 13 12 13 14 15 15 16 16 15 13 12 11 4 4 8 10 10 10 9 8 9 9 8 9 10 10 7 5
2 6 5 5 5 4 5 7 8 10 12 12 11 11 13 13 11 11 12 15 17 15 17 16 18 16 13 13 9 1 5 9 11 9 9 9 7 8 8 9 9 10 10 8
3 1 4 4 3 5 5 7 7 9 11 11 11 13 14 13 11 11 10 13 12 9 14 13 15 13 13 15 14 7 1 6 7 7 7 6 5 7 7 10 10 10 10 10
5 2 5 5 5 6 7 6 8 9 10 12 14 15 12 11 11 11 12 9 13 17 13 12 13 11 9 10 9 8 7 5 2 6 6 6 7 6 7 8 9 10 11 11
5 2 4 4 5 7 7 7 9 10 14 15 15 14 12 13 12 10 11 11 9 15 8 9 11 15 9 12 8 9 9 8 6 5 1 3 5 6 8 8 9 10 10 11
6 5 4 4 3 7 7 4 8 10 13 13 14 13 11 7 9 10 10 14 11 13 8 10 14 15 12 9 9 10 11 10 6 6 5 5 3 4 4 4 4 5 7 8
6 5 5 6 8 8 8 7 8 10 11 11 12 11 9 8 7 8 7 8 15 12 9 10 13 12 11 9 10 10 11 12 11 10 10 9 6 5 5 4 5 6 6 6
7 6 6 7 6 4 6 5 7 8 8 8 9 8 9 7 8 8 8 9 15 13 10 13 16 14 11 10 11 11 11 12 12 11 12 11 12 12 11 10 8 9 7 5
7 7 5 7 5 4 4 4 4 4 5 4 6 6 6 7 7 8 8 11 13 13 12 11 12 12 11 11 11 12 11 11 12 11 12 12 12 11 11 12 13 13 11 11
7 7 5 5 4 4 4 5 5 5 4 4 5 5 5 7 8 9 10 10 11 11 11 11 12 13 12 12 12 11 11 10 11 11 10 10 11 11 11 11 10 10 10 10
Wind_Direction
266 268 267 262 261 255 246 257 261 293 277 278 269 294 217 168 148 145 149 150 150 150 151 151 152 154 156 167 153 158 150 144 156 148 141 152 162 175 216 183 158 130 123 102
279 266 261 242 234 241 242 262 253 251 275 276 288 283 114 167 155 151 154 154 154 152 154 156 161 160 161 168 155 154 155 147 148 139 149 154 154 127 97 141 113 113 116 119
270 337 176 227 240 219 249 214 224 246 276 300 349 19 96 201 161 156 158 158 160 159 160 161 167 158 166 155 148 142 149 145 153 143 152 165 154 139 121 126 108 108 115 117
279 277 232 103 42 359 236 193 255 293 258 151 100 29 17 360 215 154 161 161 164 158 160 163 161 155 140 146 150 144 149 154 160 148 162 161 149 142 136 129 132 132 130 123
247 281 319 62 30 355 1 293 348 337 356 133 124 20 295 105 302 193 166 166 166 159 160 158 158 153 144 151 151 150 157 159 170 149 156 157 160 152 153 138 132 138 139 134
284 284 292 118 319 326 306 244 360 344 324 16 144 174 248 324 301 298 152 157 159 158 154 153 155 153 146 153 159 167 162 167 173 155 159 162 159 164 155 144 138 133 129 143
252 268 287 33 289 297 202 6 319 326 297 354 75 132 258 297 313 298 167 147 147 153 157 159 152 154 155 155 169 182 162 160 162 154 167 161 146 132 147 134 123 121 121 124
230 258 277 354 346 24 321 286 305 319 330 63 23 6 353 332 296 314 134 144 150 151 155 155 155 156 161 166 178 161 156 154 142 135 142 142 134 127 119 127 129 129 121 118
25 228 354 295 277 329 344 327 308 335 322 80 39 353 15 276 156 356 44 121 146 144 147 158 160 164 162 187 144 147 148 143 142 131 129 143 134 136 117 122 136 141 144 152
338 7 226 335 354 353 349 330 341 308 282 84 83 338 332 308 46 32 15 92 101 131 149 168 164 169 172 171 133 146 147 145 147 143 143 138 122 130 131 142 139 145 148 146
293 314 328 343 352 326 324 329 321 329 23 58 78 45 346 16 25 32 41 83 134 159 163 176 170 173 175 157 139 147 150 148 152 147 155 135 98 140 159 186 178 165 169 161
300 307 281 304 334 286 313 343 329 332 2 37 57 39 22 27 13 37 29 30 44 161 157 172 169 182 180 151 146 147 151 155 158 156 157 150 140 118 50 46 321 227 161 160
266 302 279 274 294 355 23 339 307 346 26 48 35 36 32 24 11 27 22 26 18 16 187 172 172 176 198 156 150 154 156 161 160 159 155 156 148 156 164 42 51 182 188 166
324 309 348 309 321 9 21 331 342 15 24 23 20 17 22 17 17 28 15 0 357 358 170 174 178 187 184 166 153 158 160 160 164 167 165 161 161 170 157 166 166 144 64 100
330 358 280 306 20 36 20 13 5 19 15 15 16 22 7 1 7 8 11 7 7 20 27 115 185 196 176 167 158 161 160 168 168 171 172 168 163 159 162 166 165 140 111 67
333 6 14 12 9 24 13 17 12 6 13 9 10 12 5 357 347 357 23 17 29 23 18 21 14 302 207 173 166 164 169 171 167 168 170 173 167 168 173 175 169 168 173 171
17 38 24 3 7 29 15 352 359 344 16 13 360 12 23 14 15 8 2 29 30 21 20 30 14 10 151 140 173 175 177 172 176 167 176 180 179 181 181 179 187 189 193 175
124 112 54 17 56 43 15 2 8 11 25 26 24 28 35 28 20 32 35 40 27 18 13 6 5 12 26 20 352 195 182 183 182 183 185 184 184 189 182 189 186 189 195 171
351 70 48 55 70 58 32 32 43 32 28 27 29 31 42 29 21 28 31 37 32 14 348 349 351 8 3 0 344 226 184 192 190 195 188 186 182 183 187 191 194 194 190 178
284 58 86 70 55 70 72 57 48 45 39 33 33 41 42 29 18 33 23 47 32 4 330 337 1 358 354 348 342 358 338 178 195 202 196 172 188 195 188 191 196 195 191 189
212 134 88 48 17 22 65 57 53 41 43 38 41 41 42 25 19 29 26 24 9 357 335 346 359 357 340 345 345 352 15 356 238 188 188 196 196 192 204 196 194 200 200 195
156 128 90 75 50 43 62 54 49 35 39 34 33 40 37 33 27 25 38 19 0 356 352 5 349 338 332 330 13 0 357 358 19 22 229 212 211 203 206 209 212 205 202 201
131 158 117 91 90 76 60 82 69 59 49 39 33 35 29 21 28 24 16 9 6 352 22 11 346 339 345 16 10 8 4 1 354 11 29 26 357 232 216 221 243 241 225 206
129 124 85 59 58 73 66 45 62 66 59 48 39 36 30 19 29 24 15 4 9 8 19 10 357 348 7 21 21 17 23 19 8 9 4 1 7 10 32 16 347 269 233 219
136 129 106 90 90 86 79 60 58 58 64 47 42 35 29 29 32 9 13 14 19 19 19 16 14 13 25 25 25 25 28 24 12 17 22 19 11 12 8 5 359 2 348 307
138 146 141 133 135 125 119 79 76 59 73 49 39 35 21 24 23 27 24 22 30 24 26 22 21 22 23 24 24 25 25 26 19 18 17 15 11 12 4 1 6 10 8 9
125 126 122 108 109 135 130 121 98 76 78 66 56 39 27 31 24 27 26 28 30 28 28 26 25 24 30 30 29 27 28 26 25 20 19 12 9 8 2 359 352 357 359 1